Regional Weather Roundup
Issued by NWS

Home | Current Version | Previous Version | Graphics & Text | Print | Product List | Glossary On
Versions: 1 2 3 4 5 6 7 8 9 10 11 12 13 14 15 16 17 18 19 20 21 22 23 24 25 26 27 28 29 30 31 32 33 34 35 36 37 38 39 40 41 42 43 44 45 46 47 48 49 50
000
ASUS45 KSLC 181610
RWRUT

UTAH REGIONAL WEATHER ROUNDUP
NATIONAL WEATHER SERVICE SALT LAKE CITY UT
1000 AM MDT THU SEP 18 2014

UTZ001>011-023>025-181700-

NORTHERN UTAH

CITY           SKY/WX    TMP DP  RH WIND       PRES   REMARKS
HILL AFB       NOT AVBL
LOGAN          SUNNY     72  49  44 CALM      29.92S
OGDEN          SUNNY     77  47  34 S12       29.92S
PROVO AIRPORT  SUNNY     73  45  35 E6        30.00R
SALT LAKE CITY MOSUNNY   80  44  27 SE15      29.92S
VERNAL         SUNNY     66  41  40 CALM      30.08R
WENDOVER       SUNNY     75  46  35 NE10      29.90S
HEBER CITY     SUNNY     61  45  55 CALM      30.07S
WEST JORDAN    SUNNY     79  45  29 SE15      29.96S

$$

UTZ012>022-026-027-181700-

SOUTHERN UTAH

CITY           SKY/WX    TMP DP  RH WIND       PRES   REMARKS
BRYCE CANYON   SUNNY     63  49  60 CALM      30.21S
CEDAR CITY     SUNNY     71  51  49 SW5       30.05S
MILFORD        SUNNY     74  51  44 S9        30.01S
MOAB/CYNLANDS  SUNNY     76  44  32 SE8       30.01S
PRICE          SUNNY     73  41  31 E6        30.11R
ST GEORGE      SUNNY     79  54  41 CALM      29.92S
KANAB            N/A     72  48  43 CALM      30.07S

$$

REGIONAL REPORTS     COLORADO/ARIZONA

CITY           SKY/WX    TMP DP  RH WIND       PRES   REMARKS
CRAIG, CO      SUNNY     63  43  48 CALM      30.14S
GRAND JUNCTION SUNNY     71  42  35 S6        30.05S
RIFLE          SUNNY     65  40  39 NE3       30.12F
MONTROSE       SUNNY     69  43  38 CALM      30.13F
CORTEZ         SUNNY     65  49  56 CALM      30.13F
PAGE, AZ       SUNNY     74  51  44 NW5       30.01R
GRAND CANYON   SUNNY     67  50  54 S5        30.14S
KINGMAN        PTSUNNY   79  61  53 CALM      29.94R
FLAGSTAFF      SUNNY     64  54  69 NE7       30.17R

$$

REGIONAL REPORTS    NEVADA/IDAHO/WYOMING

CITY           SKY/WX    TMP DP  RH WIND       PRES   REMARKS
LAS VEGAS, NV  MOSUNNY   84  59  42 S8        29.78R
ELY            SUNNY     72  50  45 SE14      30.05S
ELKO           PTSUNNY   75  47  36 W3        29.93R
POCATELLO, ID  MOSUNNY   70  57  63 E5        29.89S
EVANSTON, WY   MOSUNNY   70  41  34 SW9       30.14R
ROCK SPRINGS   SUNNY     64  34  32 S3        30.13S

$$



USA.gov is the U.S. government's official web portal to all federal, state and local government web resources and services.